Powrót do katalogu

FENGYUN 1C DEB *

AktywnyPO
NORAD 47003·DEBRIS·🇨🇳 China

Wystrzelony May 10, 1999 z Taiyuan Satellite Launch Center

Loading…

Następne Przeloty (najbliższe 24 godziny)

TLE

Starzejące sięSource: Space-Track

Epoka: Sep 10, 2026, 11:20 UTC

1 47003U 99025FAD 26253.47285595  .00000306  00000-0  42813-3 0  9992
2 47003  98.8517 157.7703 0334024  94.4416 269.4951 13.42963027689532

Śledź FENGYUN 1C DEB * w czasie rzeczywistym z AllMySat

Download on the App Store